Marshfield, MA

11:15 AM EDT on July 25, 2017 (GMT -0400)
Marshfield

Weather History for KGHG - December, 2011

Change the Weather History Date:

Tuesday, December 13, 2011

  Actual Average (KPYM) Record (KPYM)
Temperature  
Mean Temperature 36 °F -  
Max Temperature 44 °F 44 °F 62 °F (1979)
Min Temperature 28 °F 24 °F -2 °F (1988)
Degree Days  
Heating Degree Days 29    
Moisture  
Dew Point 30 °F    
Average Humidity 74    
Maximum Humidity 93    
Minimum Humidity 52    
Precipitation  
Precipitation 0.00 in - - ()
Sea Level Pressure  
Sea Level Pressure 30.33 in    
Wind  
Wind Speed 5 mph (WNW)    
Max Wind Speed 12 mph    
Max Gust Speed 17 mph    
Visibility 10 miles    
Events      
Averages and records for this station are not official NWS values.
T = Trace of Precipitation, MM = Missing Value Source: NWS Daily Summary

Daily Weather History Graph

Daily Weather History Graph

Search for Another Location

Airport or City:

Trip Planner

Search our weather history database for the weather conditions in past years. The results will help you decide how hot, cold, wet, or windy it might be!

Date:

Astronomy

Dec. 13, 2011 Rise Set
Actual Time 7:02 AM EST 4:11 PM EST
Civil Twilight 6:30 AM EST 4:42 PM EST
Nautical Twilight 5:55 AM EST 5:18 PM EST
Astronomical Twilight 5:21 AM EST 5:52 PM EST
Moon 7:24 PM EST (12/13) 9:09 AM EST (12/13)
Length of Visible Light 10h 12m
Length of Day
9h 08m
Waning Gibbous, 90% of the Moon is Illuminated
Dec 13
Waning Gibbous
Dec 17
Last Quarter
Dec 24
New
Jan 1
First Quarter
Jan 9
Full

Hourly Weather History & Observations

Time (EST) Temp. Windchill Dew Point Humidity Pressure Visibility Wind Dir Wind Speed Gust Speed Precip Events Conditions
12:15 AM 37.4 °F 33.8 °F 32.0 °F 81% 30.41 in 10.0 mi SW 4.6 mph - N/A   Clear
12:35 AM 37.4 °F 34.9 °F 32.0 °F 81% 30.40 in 10.0 mi WSW 3.5 mph - N/A   Clear
12:55 AM 37.4 °F 34.9 °F 32.0 °F 81% 30.40 in 10.0 mi WSW 3.5 mph - N/A   Clear
1:15 AM 37.4 °F 33.8 °F 32.0 °F 81% 30.40 in 10.0 mi WSW 4.6 mph - N/A   Clear
1:35 AM 37.4 °F - 30.2 °F 75% 30.39 in 10.0 mi Calm Calm - N/A   Clear
1:55 AM 35.6 °F 31.7 °F 30.2 °F 81% 30.39 in 10.0 mi SW 4.6 mph - N/A   Clear
2:15 AM 35.6 °F 31.7 °F 30.2 °F 81% 30.38 in 10.0 mi SW 4.6 mph - N/A   Clear
2:35 AM 35.6 °F 31.7 °F 28.4 °F 75% 30.37 in 10.0 mi SW 4.6 mph - N/A   Clear
2:55 AM 33.8 °F 30.8 °F 28.4 °F 81% 30.37 in 10.0 mi SW 3.5 mph - N/A   Clear
3:15 AM 33.8 °F 29.6 °F 28.4 °F 81% 30.37 in 10.0 mi WSW 4.6 mph - N/A   Clear
3:35 AM 33.8 °F 29.6 °F 26.6 °F 75% 30.36 in 10.0 mi SW 4.6 mph - N/A   Clear
3:55 AM 32.0 °F 27.5 °F 26.6 °F 80% 30.36 in 10.0 mi SW 4.6 mph - N/A   Clear
4:15 AM 32.0 °F 27.5 °F 26.6 °F 80% 30.35 in 6.0 mi SW 4.6 mph - N/A   Haze
4:35 AM 32.0 °F - 26.6 °F 80% 30.35 in 10.0 mi Calm Calm - N/A   Clear
4:55 AM 32.0 °F - 26.6 °F 80% 30.35 in 10.0 mi Calm Calm - N/A   Clear
5:15 AM 30.2 °F 26.7 °F 24.8 °F 80% 30.35 in 10.0 mi West 3.5 mph - N/A   Clear
5:35 AM 30.2 °F 26.7 °F 24.8 °F 80% 30.35 in 10.0 mi WSW 3.5 mph - N/A   Clear
5:55 AM 30.2 °F - 26.6 °F 86% 30.34 in 10.0 mi Calm Calm - N/A   Clear
6:15 AM 30.2 °F 26.7 °F 26.6 °F 86% 30.35 in 10.0 mi West 3.5 mph - N/A   Clear
6:35 AM 30.2 °F 25.4 °F 26.6 °F 86% 30.34 in 10.0 mi West 4.6 mph - N/A   Clear
6:55 AM 30.2 °F 25.4 °F 26.6 °F 86% 30.34 in 10.0 mi West 4.6 mph - N/A   Clear
7:15 AM 28.4 °F 23.3 °F 26.6 °F 93% 30.33 in 10.0 mi WSW 4.6 mph - N/A   Clear
7:35 AM 30.2 °F 25.4 °F 26.6 °F 86% 30.33 in 10.0 mi WSW 4.6 mph - N/A   Clear
7:55 AM 30.2 °F 24.3 °F 26.6 °F 86% 30.34 in 10.0 mi WSW 5.8 mph - N/A   Clear
8:15 AM 32.0 °F 26.4 °F 26.6 °F 80% 30.33 in 10.0 mi WSW 5.8 mph - N/A   Clear
8:35 AM 32.0 °F 27.5 °F 24.8 °F 75% 30.33 in 10.0 mi West 4.6 mph - N/A   Clear
8:55 AM 33.8 °F 30.8 °F 24.8 °F 70% 30.33 in 10.0 mi WSW 3.5 mph - N/A   Clear
9:15 AM 35.6 °F - 23.0 °F 60% 30.33 in 10.0 mi Calm Calm - N/A   Clear
9:35 AM 37.4 °F - 24.8 °F 60% 30.33 in 10.0 mi Calm Calm - N/A   Clear
9:55 AM 39.2 °F 37.0 °F 23.0 °F 52% 30.33 in 10.0 mi NNW 3.5 mph - N/A   Clear
10:15 AM 39.2 °F 35.0 °F 23.0 °F 52% 30.32 in 10.0 mi NNW 5.8 mph - N/A   Clear
10:35 AM 41.0 °F 37.1 °F 24.8 °F 53% 30.32 in 10.0 mi North 5.8 mph - N/A   Clear
10:55 AM 41.0 °F 36.4 °F 26.6 °F 57% 30.31 in 10.0 mi NNW 6.9 mph - N/A   Clear
11:15 AM 39.2 °F 35.0 °F 26.6 °F 61% 30.31 in 10.0 mi North 5.8 mph - N/A   Clear
11:35 AM 42.8 °F 38.0 °F 26.6 °F 53% 30.30 in 10.0 mi NNW 8.1 mph - N/A   Clear
11:55 AM 42.8 °F 36.6 °F 28.4 °F 57% 30.30 in 10.0 mi North 11.5 mph 17.3 mph N/A   Clear
12:15 PM 42.8 °F 38.6 °F 32.0 °F 66% 30.30 in 10.0 mi NNW 6.9 mph - N/A   Clear
12:35 PM 42.8 °F 38.0 °F 32.0 °F 66% 30.29 in 10.0 mi North 8.1 mph - N/A   Clear
12:55 PM 42.8 °F 38.0 °F 33.8 °F 70% 30.28 in 10.0 mi NW 8.1 mph - N/A   Clear
1:15 PM 42.8 °F 38.0 °F 35.6 °F 76% 30.28 in 10.0 mi NW 8.1 mph 16.1 mph N/A   Scattered Clouds
1:35 PM 44.6 °F 40.7 °F 37.4 °F 76% 30.28 in 10.0 mi NNW 6.9 mph - N/A   Mostly Cloudy
1:55 PM 44.6 °F 41.4 °F 37.4 °F 76% 30.28 in 10.0 mi NNW 5.8 mph - N/A   Mostly Cloudy
2:15 PM 44.6 °F 40.2 °F 37.4 °F 76% 30.28 in 10.0 mi NNW 8.1 mph - N/A   Mostly Cloudy
2:35 PM 44.6 °F 40.7 °F 37.4 °F 76% 30.28 in 10.0 mi NW 6.9 mph 16.1 mph N/A   Overcast
2:55 PM 44.6 °F 39.2 °F 37.4 °F 76% 30.29 in 10.0 mi NW 10.4 mph 17.3 mph N/A   Mostly Cloudy
3:15 PM 44.6 °F 39.7 °F 37.4 °F 76% 30.29 in 10.0 mi North 9.2 mph - N/A   Overcast
3:35 PM 44.6 °F 40.7 °F 37.4 °F 76% 30.29 in 10.0 mi North 6.9 mph - N/A   Overcast
3:55 PM 44.6 °F 40.7 °F 37.4 °F 76% 30.29 in 10.0 mi North 6.9 mph - N/A   Mostly Cloudy
4:15 PM 44.6 °F 41.4 °F 37.4 °F 76% 30.30 in 10.0 mi North 5.8 mph - N/A   Mostly Cloudy
4:35 PM 44.6 °F 40.2 °F 35.6 °F 71% 30.30 in 10.0 mi North 8.1 mph - N/A   Partly Cloudy
4:55 PM 44.6 °F 40.2 °F 35.6 °F 71% 30.30 in 10.0 mi North 8.1 mph - N/A   Clear
5:15 PM 44.6 °F 40.7 °F 35.6 °F 71% 30.31 in 10.0 mi North 6.9 mph - N/A   Clear
5:35 PM 44.6 °F 39.7 °F 35.6 °F 71% 30.31 in 10.0 mi North 9.2 mph - N/A   Clear
5:55 PM 44.6 °F 40.2 °F 35.6 °F 71% 30.31 in 10.0 mi North 8.1 mph - N/A   Clear
6:35 PM 44.6 °F 40.7 °F 32.0 °F 61% 30.31 in 10.0 mi North 6.9 mph - N/A   Clear
6:55 PM 44.6 °F 40.7 °F 33.8 °F 66% 30.31 in 10.0 mi North 6.9 mph - N/A   Clear
7:15 PM 44.6 °F 42.2 °F 32.0 °F 61% 30.32 in 10.0 mi North 4.6 mph - N/A   Clear
7:35 PM 44.6 °F 41.4 °F 33.8 °F 66% 30.32 in 10.0 mi North 5.8 mph - N/A   Clear
7:55 PM 44.6 °F 40.2 °F 32.0 °F 61% 30.32 in 10.0 mi North 8.1 mph - N/A   Clear
8:15 PM 44.6 °F 40.2 °F 33.8 °F 66% 30.32 in 10.0 mi North 8.1 mph - N/A   Clear
8:55 PM 44.6 °F 41.4 °F 33.8 °F 66% 30.32 in 10.0 mi North 5.8 mph - N/A   Clear
9:15 PM 44.6 °F 40.2 °F 33.8 °F 66% 30.32 in 10.0 mi North 8.1 mph - N/A   Clear
9:35 PM 44.6 °F 40.2 °F 33.8 °F 66% 30.32 in 10.0 mi North 8.1 mph - N/A   Clear
9:55 PM 44.6 °F 40.7 °F 35.6 °F 71% 30.31 in 10.0 mi North 6.9 mph - N/A   Clear
10:15 PM 44.6 °F 40.2 °F 35.6 °F 71% 30.31 in 10.0 mi North 8.1 mph - N/A   Clear
10:35 PM 44.6 °F 40.7 °F 35.6 °F 71% 30.31 in 10.0 mi NNE 6.9 mph - N/A   Scattered Clouds
10:55 PM 44.6 °F 41.4 °F 35.6 °F 71% 30.32 in 10.0 mi North 5.8 mph - N/A   Mostly Cloudy
11:15 PM 44.6 °F 40.7 °F 35.6 °F 71% 30.32 in 10.0 mi North 6.9 mph - N/A   Overcast
11:35 PM 44.6 °F 42.2 °F 35.6 °F 71% 30.33 in 10.0 mi NW 4.6 mph - N/A   Overcast
11:55 PM 41.0 °F 39.0 °F 33.8 °F 76% 30.32 in 10.0 mi West 3.5 mph - N/A   Overcast